Wind_Speed
41 42 43 45 52 52 47 45 42 41 42 42 42 41 38 36 34 32 30 29 28 26 25 23 23 25 24 24 24 23 23 22
39 39 45 43 48 51 52 46 44 45 45 43 42 42 40 38 36 34 30 29 26 25 24 22 23 26 25 24 24 25 25 23
40 43 46 44 45 50 57 52 46 47 47 43 44 40 39 38 36 34 31 27 26 26 25 23 24 25 26 25 26 26 26 24
39 41 46 44 42 35 42 43 43 47 49 47 45 42 40 39 38 37 32 29 26 25 23 24 25 25 26 24 27 27 28 27
42 39 36 41 45 42 40 41 43 44 46 44 44 43 42 41 41 37 31 27 24 22 25 24 25 26 26 26 27 26 28 32
31 28 26 27 26 27 30 35 39 41 38 38 39 38 37 36 34 33 32 25 22 24 26 26 27 28 25 25 24 25 28 32
27 26 24 22 17 19 23 28 33 33 33 29 29 27 30 28 27 29 33 23 24 29 27 27 29 28 28 28 29 28 30 29
36 38 39 37 35 33 30 29 28 24 24 25 24 23 22 25 21 24 23 27 36 34 33 33 34 32 33 29 32 31 31 29
39 40 41 39 35 35 33 30 29 25 22 19 16 14 13 13 17 22 22 40 46 40 40 36 34 35 35 35 33 31 31 33
35 35 34 33 31 31 29 26 24 20 15 12 11 9 10 12 14 17 24 29 30 31 34 35 37 37 36 36 36 34 33 32
32 31 31 29 27 27 23 20 19 16 11 7 3 4 8 12 15 20 24 29 34 35 36 38 39 39 39 37 37 35 32 33
30 28 27 27 27 25 24 21 17 12 10 9 10 11 11 13 16 20 24 29 33 35 36 40 42 43 41 39 37 37 34 33
31 29 26 29 31 27 22 21 17 15 12 12 14 16 17 18 19 20 24 28 31 33 34 37 42 44 42 40 37 34 36 34
27 27 34 36 31 25 23 21 20 16 14 13 13 14 16 19 21 23 25 27 30 31 32 34 40 42 43 41 37 32 34 38
34 37 35 34 32 28 24 22 21 19 18 17 17 18 19 21 23 24 26 25 27 29 28 28 31 36 40 40 38 36 35 36
32 32 32 31 29 27 25 23 23 24 25 25 24 22 21 22 24 25 26 26 26 27 29 27 27 33 37 36 36 35 36 36
27 28 29 29 27 25 23 24 27 25 25 25 27 27 25 25 25 25 24 25 25 26 28 27 27 27 32 33 34 35 37 34
26 28 26 24 25 25 27 29 28 27 28 29 30 30 31 30 28 25 22 21 24 24 29 27 27 32 32 32 35 31 33 34
26 25 22 24 24 26 26 28 28 29 29 31 33 34 35 33 31 28 23 21 22 24 26 27 28 29 29 30 27 30 32 35
Wind_Direction
258 257 252 244 234 229 225 224 222 226 226 227 228 229 231 233 232 234 234 234 233 234 233 232 231 229 227 227 230 235 240 245
258 251 247 245 236 229 228 228 227 227 226 225 228 230 229 230 231 231 230 230 227 228 233 232 231 231 234 234 232 236 240 241
263 249 246 241 229 230 231 231 235 233 233 233 230 233 232 232 227 226 226 223 224 226 232 234 232 234 233 233 235 242 241 238
256 252 245 238 221 223 222 226 232 237 236 236 233 232 233 232 228 225 221 222 223 228 233 237 234 234 238 238 238 240 244 242
243 245 240 236 223 216 218 221 224 228 232 232 233 233 232 233 231 227 222 217 222 234 242 243 239 235 240 241 236 242 245 244
224 218 221 218 218 218 219 219 222 227 229 229 229 229 236 237 235 230 229 235 224 238 247 248 243 238 244 247 241 238 249 248
137 144 150 151 172 184 196 203 205 212 216 214 218 224 232 233 225 222 241 263 271 249 251 254 251 247 243 243 245 247 251 252
96 109 119 122 124 131 142 159 158 169 185 188 192 208 202 206 212 218 248 259 257 254 250 248 249 248 246 243 241 246 249 254
81 96 104 108 111 114 115 116 120 128 134 141 150 170 183 200 217 223 225 234 243 246 249 248 247 251 250 248 245 249 252 257
71 86 91 95 97 101 106 106 110 111 113 123 135 165 195 216 222 226 228 239 248 250 251 249 247 244 244 248 246 248 251 262
65 70 76 81 81 83 88 87 88 88 83 76 103 199 231 245 249 249 249 250 251 251 245 245 245 245 242 240 244 244 255 261
61 62 63 67 72 69 64 60 55 43 20 348 325 313 297 280 268 259 255 252 252 253 249 240 240 242 243 242 238 245 250 251
54 51 49 57 60 58 50 45 34 28 9 343 324 313 306 296 286 274 264 260 257 258 253 245 242 240 238 237 237 247 240 245
46 41 40 48 50 41 37 34 30 18 359 346 333 319 308 300 294 286 278 272 266 262 260 252 246 239 239 237 236 245 243 243
42 38 37 41 44 41 40 37 30 27 15 2 347 335 323 312 302 292 286 277 269 261 255 255 247 238 238 237 237 242 243 242
35 36 31 32 37 32 32 30 27 24 17 13 3 349 336 323 314 303 292 283 270 258 249 247 249 240 237 240 236 246 243 239
25 31 29 24 29 28 22 22 24 19 14 11 3 358 347 339 329 312 300 288 281 256 244 244 249 243 235 242 240 248 240 244
22 22 19 17 23 21 21 23 20 16 13 6 1 358 353 346 336 324 311 294 281 269 242 241 243 243 241 243 243 238 240 245
18 18 17 20 18 22 21 21 18 17 12 7 2 357 353 350 342 333 319 306 283 268 244 240 244 249 246 249 242 236 243 231
Height
1416 1423 1424 1424 1427 1433 1439 1443 1449 1454 1457 1462 1468 1470 1474 1478 1482 1485 1489 1492 1495 1499 1502 1505 1508 1511 1512 1515 1518 1521 1523 1526
1408 1412 1414 1416 1418 1422 1428 1435 1441 1446 1450 1453 1459 1462 1465 1469 1474 1479 1482 1485 1490 1494 1497 1500 1503 1505 1508 1511 1514 1516 1518 1521
1398 1399 1404 1406 1408 1411 1419 1426 1434 1438 1442 1447 1450 1456 1460 1464 1467 1471 1476 1480 1484 1488 1491 1494 1498 1500 1502 1505 1508 1511 1514 1516
1388 1389 1392 1398 1400 1403 1409 1419 1425 1430 1436 1441 1445 1449 1454 1458 1462 1465 1469 1474 1478 1482 1484 1487 1492 1494 1496 1499 1502 1505 1508 1511
1376 1379 1383 1388 1393 1398 1403 1411 1417 1422 1427 1433 1437 1441 1444 1449 1454 1461 1465 1468 1472 1477 1480 1481 1484 1487 1490 1493 1496 1499 1502 1503
1367 1371 1375 1383 1387 1391 1398 1406 1412 1417 1422 1428 1432 1435 1440 1444 1448 1455 1459 1460 1463 1473 1475 1477 1479 1481 1483 1487 1490 1492 1495 1497
1361 1365 1371 1377 1380 1385 1393 1400 1406 1412 1417 1424 1428 1432 1437 1441 1444 1449 1454 1450 1461 1470 1469 1472 1475 1474 1476 1479 1483 1486 1489 1490
1362 1365 1369 1375 1383 1388 1394 1400 1404 1411 1415 1421 1424 1429 1433 1437 1441 1442 1447 1457 1462 1465 1463 1465 1467 1467 1470 1472 1475 1478 1481 1482
1370 1373 1376 1383 1391 1394 1398 1402 1405 1411 1417 1421 1422 1426 1430 1434 1437 1441 1443 1450 1455 1456 1457 1459 1458 1459 1463 1465 1467 1470 1472 1474
1382 1383 1386 1390 1394 1394 1399 1404 1409 1412 1416 1420 1419 1425 1428 1431 1433 1436 1441 1445 1446 1446 1448 1448 1449 1451 1454 1457 1458 1461 1463 1466
1391 1392 1394 1398 1400 1400 1403 1406 1407 1411 1415 1418 1421 1424 1426 1426 1427 1430 1433 1435 1436 1436 1437 1438 1440 1441 1443 1446 1449 1452 1453 1455
1398 1399 1401 1403 1400 1401 1402 1404 1406 1408 1408 1413 1416 1417 1418 1419 1421 1423 1424 1424 1425 1424 1426 1429 1429 1431 1433 1435 1438 1442 1444 1447
1400 1403 1405 1403 1397 1401 1408 1404 1404 1406 1407 1410 1409 1411 1413 1414 1415 1416 1416 1416 1415 1414 1415 1417 1418 1420 1423 1425 1428 1432 1435 1437
1411 1411 1401 1395 1395 1401 1402 1404 1405 1405 1409 1412 1413 1412 1411 1410 1409 1408 1407 1406 1405 1404 1403 1404 1406 1408 1412 1415 1420 1423 1426 1430
1414 1410 1410 1409 1407 1410 1409 1410 1412 1411 1412 1410 1407 1404 1403 1403 1402 1400 1399 1397 1395 1394 1395 1395 1396 1399 1403 1406 1411 1415 1418 1421
1426 1423 1421 1420 1419 1420 1420 1420 1417 1412 1409 1405 1403 1403 1403 1399 1394 1391 1389 1386 1384 1384 1386 1387 1388 1391 1393 1398 1402 1406 1409 1412
1433 1430 1428 1430 1428 1426 1425 1421 1411 1410 1412 1407 1405 1401 1396 1391 1387 1384 1380 1377 1375 1376 1377 1379 1380 1382 1386 1390 1395 1396 1401 1404
1439 1433 1435 1438 1431 1430 1423 1414 1411 1409 1404 1404 1403 1397 1392 1387 1382 1377 1373 1369 1369 1368 1369 1371 1373 1376 1379 1383 1386 1389 1393 1396
1443 1442 1443 1439 1436 1428 1422 1415 1413 1409 1409 1405 1400 1395 1388 1383 1377 1371 1366 1363 1361 1361 1361 1363 1366 1368 1371 1374 1378 1382 1385 1388